LU3GHF-13 Weather Reports


time (UTC)temp
C
wind
direction
speed
KPH
gust
KPH
rain 1hr
cm
rain 24hr
cm
rain mn
cm
humidity
%
barometer
mb
20260507153209 26 0.0 0.0 0.00 0.00 0.00 92 996.4
20260507150129 27 0.0 0.0 0.00 0.00 0.00 81 996.8
20260507145104 27 0.0 0.0 0.00 0.00 0.00 80 996.9
20260507133826 26 0.0 0.0 0.00 0.00 0.00 81 997.2
20260507122556 26 0.0 0.0 0.00 0.00 0.00 80 997.5
20260507112238 25 0.0 0.0 0.00 0.00 0.00 83 997.7
20260507111212 25 0.0 0.0 0.00 0.00 0.00 83 997.6
20260507110154 25 0.0 0.0 0.00 0.00 0.00 83 997.5
20260507105149 25 0.0 0.0 0.00 0.00 0.00 83 997.5
20260507104112 25 0.0 0.0 0.00 0.00 0.00 83 997.6
20260507103038 25 0.0 0.0 0.00 0.00 0.00 83 997.5
20260507101955 25 0.0 0.0 0.00 0.00 0.00 82 997.3
20260507100907 25 0.0 0.0 0.00 0.00 0.00 83 997.2
20260507095811 25 0.0 0.0 0.00 0.00 0.00 82 997.0
20260507094732 25 0.0 0.0 0.00 0.00 0.00 82 996.9
20260507093704 25 0.0 0.0 0.00 0.00 0.00 82 996.6
20260507092619 25 0.0 0.0 0.00 0.00 0.00 83 996.2
20260507091545 25 0.0 0.0 0.00 0.00 0.00 83 996.2
20260507090513 25 0.0 0.0 0.00 0.00 0.00 83 995.9
20260507085431 26 0.0 0.0 0.00 0.00 0.00 83 995.9
20260507084353 26 0.0 0.0 0.00 0.00 0.00 83 996.1
20260507083319 26 0.0 0.0 0.00 0.00 0.00 84 996.1
20260507082314 26 0.0 0.0 0.00 0.00 0.00 84 996.4
20260507081300 26 0.0 0.0 0.00 0.00 0.00 84 996.5
20260507080224 26 0.0 0.0 0.00 0.00 0.00 84 996.6
20260507075219 26 0.0 0.0 0.00 0.00 0.00 84 996.7
20260507074204 26 0.0 0.0 0.00 0.00 0.00 84 996.9
20260507073155 26 0.0 0.0 0.00 0.00 0.00 84 997.0
20260507072129 26 0.0 0.0 0.00 0.00 0.00 84 997.1
20260507071113 26 0.0 0.0 0.00 0.00 0.00 84 997.2
20260507070033 26 0.0 0.0 0.00 0.00 0.00 84 997.3
20260507065009 26 0.0 0.0 0.00 0.00 0.00 85 997.4
20260507063919 26 0.0 0.0 0.00 0.00 0.00 85 997.4
20260507062823 26 0.0 0.0 0.00 0.00 0.00 85 997.4
20260507061802 26 0.0 0.0 0.00 0.00 0.00 86 997.5
20260507060801 26 0.0 0.0 0.00 0.00 0.00 86 997.5
20260507053652 26 0.0 0.0 0.00 0.00 0.00 85 998.1
20260507052602 26 0.0 0.0 0.00 0.00 0.00 85 998.2
20260507051523 26 0.0 0.0 0.00 0.00 0.00 84 998.3
20260507050438 26 0.0 0.0 0.00 0.00 0.00 84 998.4
20260507045434 26 0.0 0.0 0.00 0.00 0.00 83 998.5
20260507044423 26 0.0 0.0 0.00 0.00 0.00 83 998.6
20260507043350 26 0.0 0.0 0.00 0.00 0.00 83 998.7
20260507042322 26 0.0 0.0 0.00 0.00 0.00 83 998.7
20260507041251 26 0.0 0.0 0.00 0.00 0.00 82 998.8
20260507040241 26 0.0 0.0 0.00 0.00 0.00 82 998.9
20260507035149 26 0.0 0.0 0.00 0.00 0.00 82 998.9
20260507034112 26 0.0 0.0 0.00 0.00 0.00 82 999.0
20260507033013 26 0.0 0.0 0.00 0.00 0.00 82 999.1
20260507032009 26 0.0 0.0 0.00 0.00 0.00 81 999.2
20260507030939 26 0.0 0.0 0.00 0.00 0.00 81 999.2
20260507025916 26 0.0 0.0 0.00 0.00 0.00 81 999.2
20260507024906 27 0.0 0.0 0.00 0.00 0.00 80
20260507022758 26 0.0 0.0 0.00 0.00 0.00 81 999.4
20260507020703 26 0.0 0.0 0.00 0.00 0.00 80 999.6
20260507015631 26 0.0 0.0 0.00 0.00 0.00 81 999.7
20260507014608 26 0.0 0.0 0.00 0.00 0.00 81 999.7
20260507013526 26 0.0 0.0 0.00 0.00 0.00 81 999.8
20260507012500 26 0.0 0.0 0.00 0.00 0.00 81 999.8
20260507011457 27 0.0 0.0 0.00 0.00 0.00 80 999.8
20260507010437 27 0.0 0.0 0.00 0.00 0.00 80 1000.1
20260507005411 27 0.0 0.0 0.00 0.00 0.00 80 1000.0
20260507004411 27 0.0 0.0 0.00 0.00 0.00 80 1000.0
20260507003336 27 0.0 0.0 0.00 0.00 0.00 80 1000.0
20260507002316 27 0.0 0.0 0.00 0.00 0.00 80 999.9
20260507001226 27 0.0 0.0 0.00 0.00 0.00 80 999.9
20260507000155 27 0.0 0.0 0.00 0.00 0.00 80 999.9
20260506235110 27 0.0 0.0 0.00 0.00 0.00 80 999.9
20260506234045 27 0.0 0.0 0.00 0.00 0.00 80 999.8
20260506232947 27 0.0 0.0 0.00 0.00 0.00 81 1000.0
20260506231900 27 0.0 0.0 0.00 0.00 0.00 82 1000.1
20260506230854 27 0.0 0.0 0.00 0.00 0.00 82 1000.2
20260506225815 27 0.0 0.0 0.00 0.00 0.00 83 1000.4
20260506224806 27 0.0 0.0 0.00 0.00 0.00 85 1000.5
20260506223755 27 0.0 0.0 0.00 0.00 0.00 84 1000.6
20260506222709 27 0.0 0.0 0.00 0.00 0.00 84 1000.5
20260506221620 27 0.0 0.0 0.00 0.00 0.00 83 1000.4
20260506220605 27 0.0 0.0 0.00 0.00 0.00 83 1000.6
20260506215523 27 0.0 0.0 0.00 0.00 0.00 82 1000.5
20260506214433 27 0.0 0.0 0.00 0.00 0.00 82 1000.5
20260506213349 27 0.0 0.0 0.00 0.00 0.00 82 1000.4
20260506212316 28 0.0 0.0 0.00 0.00 0.00 82 1000.5
20260506211243 28 0.0 0.0 0.00 0.00 0.00 80 1000.5
20260506210215 28 0.0 0.0 0.00 0.00 0.00 80 1000.6
20260506205215 28 0.0 0.0 0.00 0.00 0.00 79 1000.7
20260506204146 28 0.0 0.0 0.00 0.00 0.00 78 1000.8
20260506203048 28 0.0 0.0 0.00 0.00 0.00 77 1000.9
20260506202007 28 0.0 0.0 0.00 0.00 0.00 76 1000.8
20260506200942 29 0.0 0.0 0.00 0.00 0.00 74 1000.7
20260506195846 30 0.0 0.0 0.00 0.00 0.00 73 1000.7
20260506194807 30 0.0 0.0 0.00 0.00 0.00 72 1000.9
20260506193711 30 0.0 0.0 0.00 0.00 0.00 71 1000.8
20260506192700 30 0.0 0.0 0.00 0.00 0.00 72 1000.7
20260506190602 31 0.0 0.0 0.00 0.00 0.00 68 1000.8
20260506185542 30 0.0 0.0 0.00 0.00 0.00 69 1000.9
20260506184516 31 0.0 0.0 0.00 0.00 0.00 68 1000.8
20260506183431 31 0.0 0.0 0.00 0.00 0.00 69 1001.1
20260506171000 31 0.0 0.0 0.00 0.00 0.00 66 1002.5
20260506161836 32 0.0 0.0 0.00 0.00 0.00 64 1003.2